Tracking 23610 objects as of 19-Sep-2021
HD Live streaming from Space Station
objects crossing your sky now

DMSP 5D-2 F13 DEB

Track DMSP 5D-2 F13 DEB now!
10-day predictions


NORAD ID: 40562
Int'l Code: 1995-015DV
Perigee: 806.7 km
Apogee: 830.5 km
Inclination: 98.8 °
Period: 101.1 minutes
Semi major axis: 7189 km
RCS: Unknown
Launch date: March 24, 1995
Source: United States (US)
Launch site: AIR FORCE WESTERN TEST RANGE (AFWTR)

Note: This is SATELLITE DEBRIS
aabbcc
Your satellite tracking list
Your tracking list is empty




NASA's NSSDC Master Catalog

Two Line Element Set (TLE):
1 40562U 95015DV  21260.30885099  .00002227  00000-0  98578-3 0  9993
2 40562  98.7800 272.4301 0016493 143.2288 217.0025 14.24119498334630
Source of the keplerian elements: AFSPC